Torna al catalogo

ARIANE 5 R/B

AttivoHEO
NORAD 38553·ROCKET BODY·🇫🇷 France

Lanciato Jul 5, 2012 da Guiana Space Centre

Loading…

Prossimi Passaggi (prossime 24 ore)

TLE

AggiornatoSource: Space-Track

Epoca: Sep 14, 2026, 12:32 UTC

1 38553U 12035C   26257.52283842  .00002619  00000-0  69938-3 0  9997
2 38553   6.4129 309.9356 7074240   8.3080 359.1298  2.54386060124442

Traccia ARIANE 5 R/B in tempo reale con AllMySat

Download on the App Store